Weather History for KPEQ - October, 2011

Change the Weather History Date:

Sunday, October 23, 2011

  Actual Average Record
Temperature  
Mean Temperature 66 °F -  
Max Temperature 84 °F 76 °F - (-1)
Min Temperature 48 °F 46 °F - (-1)
Cooling Degree Days 1    
Growing Degree Days 16 (Base 50)    
Moisture  
Dew Point 31 °F    
Average Humidity 29    
Maximum Humidity 44    
Minimum Humidity 16    
Precipitation  
Precipitation 0.00 in - - ()
Sea Level Pressure  
Sea Level Pressure 30.09 in    
Wind  
Wind Speed 5 mph (North)    
Max Wind Speed 9 mph    
Max Gust Speed -    
Visibility 10 miles    
Events      
Averages and records for this station are not official NWS values.
T = Trace of Precipitation, MM = Missing Value Source: NWS Daily Summary

Daily Weather History Graph

Daily Weather History Graph

Search for Another Location

Airport or City:

Trip Planner

Search our weather history database for the weather conditions in past years. The results will help you decide how hot, cold, wet, or windy it might be!

Date:

Astronomy

Oct. 23, 2011 Rise Set
Actual Time 8:02 AM CDT 7:13 PM CDT
Civil Twilight 7:37 AM CDT 7:38 PM CDT
Nautical Twilight 7:09 AM CDT 8:06 PM CDT
Astronomical Twilight 6:41 AM CDT 8:34 PM CDT
Moon 4:25 AM CDT (10/23) 4:55 PM CDT (10/23)
Length of Visible Light 12h 00m
Length of Day
11h 11m
Waning Crescent, 14% of the Moon is Illuminated
Oct 23
Waning Crescent
Oct 26
New
Nov 2
First Quarter
Nov 10
Full
Nov 18
Last Quarter

Hourly Weather History & Observations

Time (CDT) Temp. Dew Point Humidity Pressure Visibility Wind Dir Wind Speed Gust Speed Precip Events Conditions
12:15 AM 60.4 °F 21.4 °F 22% 30.02 in 10.0 mi WSW 4.6 mph - N/A   Clear
12:35 AM 58.6 °F 20.1 °F 22% 30.01 in 10.0 mi WSW 5.8 mph - N/A   Clear
12:55 AM 56.7 °F 20.1 °F 24% 30.02 in 10.0 mi WSW 8.1 mph - N/A   Clear
1:15 AM 55.4 °F 19.9 °F 25% 30.01 in 10.0 mi Calm Calm - N/A   Clear
1:35 AM 55.6 °F 19.4 °F 24% 30.02 in 10.0 mi WSW 5.8 mph - N/A   Clear
1:55 AM 54.5 °F 19.4 °F 25% 30.02 in 10.0 mi West 5.8 mph - N/A   Clear
2:15 AM 52.9 °F 19.6 °F 27% 30.02 in 10.0 mi WNW 4.6 mph - N/A   Clear
2:35 AM 51.8 °F 21.6 °F 31% 30.02 in 10.0 mi WNW 8.1 mph - N/A   Clear
2:55 AM 52.0 °F 22.6 °F 32% 30.03 in 10.0 mi WNW 6.9 mph - N/A   Clear
3:15 AM 51.8 °F 21.0 °F 30% 30.03 in 10.0 mi West 4.6 mph - N/A   Clear
3:35 AM 50.9 °F 20.1 °F 30% 30.04 in 10.0 mi WNW 6.9 mph - N/A   Clear
3:55 AM 49.6 °F 19.6 °F 31% 30.04 in 10.0 mi WNW 5.8 mph - N/A   Clear
4:15 AM 49.5 °F 21.4 °F 33% 30.04 in 10.0 mi NW 6.9 mph - N/A   Clear
4:35 AM 50.2 °F 19.9 °F 30% 30.04 in 10.0 mi NW 8.1 mph - N/A   Clear
4:55 AM 51.1 °F 19.2 °F 29% 30.04 in 10.0 mi NW 8.1 mph - N/A   Clear
5:15 AM 51.1 °F 19.4 °F 29% 30.05 in 10.0 mi NW 6.9 mph - N/A   Clear
5:35 AM 50.9 °F 20.1 °F 30% 30.05 in 10.0 mi NW 8.1 mph - N/A   Clear
5:55 AM 50.9 °F 21.2 °F 31% 30.06 in 10.0 mi NW 8.1 mph - N/A   Clear
6:15 AM 50.9 °F 23.0 °F 34% 30.07 in 10.0 mi WNW 5.8 mph - N/A   Clear
6:35 AM 50.2 °F 24.3 °F 36% 30.07 in 10.0 mi WNW 5.8 mph - N/A   Clear
6:55 AM 49.6 °F 24.8 °F 38% 30.09 in 10.0 mi WNW 3.5 mph - N/A   Clear
7:15 AM 48.0 °F 25.3 °F 41% 30.10 in 10.0 mi NW 6.9 mph - N/A   Clear
7:35 AM 49.3 °F 27.1 °F 42% 30.11 in 10.0 mi NW 6.9 mph - N/A   Clear
7:55 AM 50.7 °F 28.2 °F 42% 30.11 in 10.0 mi NW 8.1 mph - N/A   Clear
8:15 AM 50.7 °F 28.9 °F 43% 30.12 in 10.0 mi NW 8.1 mph - N/A   Clear
8:35 AM 50.7 °F 29.3 °F 44% 30.13 in 10.0 mi NW 5.8 mph - N/A   Clear
8:55 AM 51.8 °F 29.8 °F 43% 30.15 in 10.0 mi NW 5.8 mph - N/A   Clear
9:15 AM 54.1 °F 30.6 °F 41% 30.15 in 10.0 mi NNW 5.8 mph - N/A   Clear
9:55 AM 60.1 °F 34.5 °F 38% 30.17 in 10.0 mi NW 5.8 mph - N/A   Clear
10:15 AM 63.0 °F 37.0 °F 38% 30.17 in 10.0 mi NW 6.9 mph - N/A   Clear
10:35 AM 64.8 °F 38.7 °F 38% 30.18 in 10.0 mi NNW 3.5 mph - N/A   Clear
10:55 AM 66.0 °F 40.5 °F 39% 30.18 in 10.0 mi Calm Calm - N/A   Clear
11:15 AM 67.3 °F 41.9 °F 40% 30.17 in 10.0 mi Calm Calm - N/A   Clear
11:35 AM 69.1 °F 43.2 °F 39% 30.17 in 10.0 mi NE 4.6 mph - N/A   Clear
11:55 AM 70.3 °F 43.7 °F 38% 30.18 in 10.0 mi Calm Calm - N/A   Clear
12:15 PM 71.4 °F 43.9 °F 37% 30.17 in 10.0 mi Calm Calm - N/A   Clear
12:35 PM 72.5 °F 43.3 °F 35% 30.16 in 10.0 mi ENE 3.5 mph - N/A   Clear
12:55 PM 74.1 °F 43.3 °F 33% 30.16 in 10.0 mi ENE 6.9 mph - N/A   Clear
1:15 PM 75.7 °F 43.9 °F 32% 30.15 in 10.0 mi ENE 6.9 mph - N/A   Clear
1:35 PM 77.0 °F 43.9 °F 31% 30.14 in 10.0 mi Calm Calm - N/A   Clear
1:55 PM 78.1 °F 43.7 °F 29% 30.12 in 10.0 mi Calm Calm - N/A   Clear
2:15 PM 79.3 °F 43.2 °F 28% 30.12 in 10.0 mi SSE 4.6 mph - N/A   Clear
2:35 PM 79.5 °F 43.3 °F 28% 30.11 in 10.0 mi ENE 6.9 mph - N/A   Clear
2:55 PM 80.8 °F 42.3 °F 25% 30.10 in 10.0 mi ESE 6.9 mph - N/A   Clear
3:15 PM 81.7 °F 40.6 °F 23% 30.09 in 10.0 mi East 3.5 mph - N/A   Clear
3:35 PM 82.4 °F 39.7 °F 22% 30.08 in 10.0 mi Calm Calm - N/A   Clear
3:55 PM 83.1 °F 37.4 °F 20% 30.07 in 10.0 mi NE 5.8 mph - N/A   Clear
4:15 PM 83.3 °F 37.6 °F 20% 30.07 in 10.0 mi ESE 5.8 mph - N/A   Clear
4:35 PM 83.7 °F 35.2 °F 18% 30.07 in 10.0 mi ESE 4.6 mph - N/A   Clear
4:55 PM 84.0 °F 34.7 °F 17% 30.06 in 10.0 mi ESE 5.8 mph - N/A   Clear
5:15 PM 84.0 °F 34.5 °F 17% 30.06 in 10.0 mi East 6.9 mph - N/A   Clear
5:35 PM 83.7 °F 33.8 °F 17% 30.06 in 10.0 mi ESE 8.1 mph - N/A   Clear
5:55 PM 83.7 °F 32.7 °F 16% 30.06 in 10.0 mi ESE 8.1 mph - N/A   Clear
6:15 PM 83.3 °F 33.1 °F 16% 30.06 in 10.0 mi ESE 9.2 mph - N/A   Clear
6:35 PM 82.6 °F 32.9 °F 17% 30.06 in 10.0 mi East 6.9 mph - N/A   Clear
6:55 PM 81.3 °F 32.7 °F 17% 30.07 in 10.0 mi ESE 5.8 mph - N/A   Clear
7:15 PM 77.9 °F 32.5 °F 19% 30.07 in 10.0 mi ESE 5.8 mph - N/A   Clear
7:35 PM 74.8 °F 32.5 °F 21% 30.08 in 10.0 mi ESE 4.6 mph - N/A   Clear
7:55 PM 73.4 °F 32.2 °F 22% 30.09 in 10.0 mi ESE 4.6 mph - N/A   Clear
8:15 PM 71.2 °F 32.0 °F 24% 30.10 in 10.0 mi ESE 4.6 mph - N/A   Clear
8:35 PM 70.3 °F 32.2 °F 24% 30.10 in 10.0 mi ESE 5.8 mph - N/A   Clear
8:55 PM 69.4 °F 32.5 °F 26% 30.11 in 10.0 mi ESE 6.9 mph - N/A   Clear
9:15 PM 67.1 °F 32.9 °F 28% 30.12 in 10.0 mi ESE 5.8 mph - N/A   Clear
9:35 PM 64.8 °F 33.3 °F 31% 30.12 in 10.0 mi SE 8.1 mph - N/A   Clear
9:55 PM 63.7 °F 33.8 °F 33% 30.12 in 10.0 mi SE 5.8 mph - N/A   Clear
10:35 PM 62.8 °F 34.0 °F 34% 30.13 in 10.0 mi SSE 4.6 mph - N/A   Clear
10:55 PM 61.0 °F 32.7 °F 35% 30.15 in 10.0 mi SSW 4.6 mph - N/A   Clear
11:15 PM 60.4 °F 32.4 °F 35% 30.15 in 10.0 mi SSW 3.5 mph - N/A   Clear
11:35 PM 58.6 °F 32.0 °F 37% 30.15 in 10.0 mi SSW 6.9 mph - N/A   Clear
11:55 PM 58.3 °F 31.3 °F 36% 30.15 in 10.0 mi SSW 5.8 mph - N/A   Clear